| DS18B20 | SHTC3 | ||||||
|---|---|---|---|---|---|---|---|
| ID | Date d/m/Y & Time | data1 สูง | data2 ต่ำ | data3 นอก | temp pcb | hum pcb | Time |
| 9905 | 08/04/2026 09:36:45 | 31.5  | 30.2  | 33.2  | 30.7  | 67.3  | 09:36 |
| 9904 | 08/04/2026 09:32:03 | 31.4  | 30.2  | 33.2  | 30.7  | 67.5  | 09:32 |
| 9903 | 08/04/2026 09:27:21 | 31.2  | 30.1  | 33.1  | 30.6  | 67.5  | 09:27 |
| 9902 | 08/04/2026 09:22:39 | 31.1  | 30.0  | 33.0  | 30.4  | 67.8  | 09:22 |
| 9901 | 08/04/2026 09:17:54 | 31.0  | 29.9  | 32.7  | 30.2  | 67.9  | 09:17 |
| 9900 | 08/04/2026 09:13:12 | 30.8  | 29.8  | 32.5  | 30.1  | 68.1  | 09:13 |
| 9899 | 08/04/2026 09:08:30 | 30.7  | 29.8  | 32.4  | 30.1  | 68.5  | 09:08 |
| 9898 | 08/04/2026 09:03:48 | 30.5  | 29.6  | 31.7  | 30.0  | 68.6  | 09:03 |
| 9897 | 08/04/2026 08:59:05 | 30.4  | 29.6  | 32.0  | 29.9  | 68.8  | 08:59 |
| 9896 | 08/04/2026 08:54:23 | 30.2  | 29.5  | 31.7  | 29.6  | 69.1  | 08:54 |
| 9895 | 08/04/2026 08:49:41 | 30.1  | 29.4  | 31.6  | 29.6  | 69.3  | 08:49 |
| 9894 | 08/04/2026 08:44:59 | 29.9  | 29.4  | 31.6  | 29.4  | 69.4  | 08:44 |
| 9893 | 08/04/2026 08:40:17 | 29.8  | 29.3  | 31.3  | 29.6  | 69.6  | 08:40 |
| 9892 | 08/04/2026 08:35:35 | 29.7  | 29.2  | 31.0  | 29.4  | 69.8  | 08:35 |
| 9891 | 08/04/2026 08:30:53 | 29.6  | 29.2  | 30.5  | 29.1  | 69.8  | 08:30 |
| 9890 | 08/04/2026 08:26:11 | 29.4  | 29.1  | 30.6  | 29.1  | 70.0  | 08:26 |
| 9889 | 08/04/2026 08:21:27 | 29.3  | 29.1  | 30.4  | 29.1  | 69.9  | 08:21 |
| 9888 | 08/04/2026 08:16:45 | 29.2  | 29.0  | 30.3  | 29.1  | 70.1  | 08:16 |
| 9887 | 08/04/2026 08:12:02 | 29.2  | 29.0  | 30.2  | 28.9  | 70.1  | 08:12 |
| 9886 | 08/04/2026 08:07:20 | 29.1  | 28.9  | 29.8  | 28.9  | 70.1  | 08:07 |
| 9885 | 08/04/2026 08:02:38 | 29.0  | 28.9  | 29.4  | 28.8  | 70.2  | 08:02 |
| 9884 | 08/04/2026 07:57:56 | 28.9  | 28.9  | 29.2  | 28.7  | 70.3  | 07:57 |
| 9883 | 08/04/2026 07:53:15 | 28.9  | 28.9  | 29.0  | 28.8  | 70.4  | 07:53 |
| 9882 | 08/04/2026 07:48:31 | 28.8  | 28.8  | 28.8  | 28.8  | 70.4  | 07:48 |